Location: Byhalia Creek
(34.8270°N, 89.8040°W)
Time: 08:13:52
(UTC+00:00)

MetOp-B - Pass Details

Date: 22 April 2026
Orbit: 818 x 823 km, 98.7° (Epoch: 15 May)

Event Time Altitude Azimuth Distance (km) Brightness Sun altitude
Exits shadow 02:13:43 33° 141° (SE) 1,343 4.7 -19.2°
Maximum altitude 02:16:01 62° 74° (ENE) 923 4.2 -19.6°
Drops below altitude 10° 02:21:18 10° 355° (N) 2,423 7.1 -20.5°
Sets 02:23:40 0° 352° (N) 3,358 7.9 -20.9°
